Location: Drummondville
(45.8830°N, 72.4830°W)
Time: 04:35:15
(UTC-05:00)

Envisat - Pass Details

Date: 13 November 2017
Orbit: 764 x 766 km, 98.2° (Epoch: 23 November)

Event Time Altitude Azimuth Distance (km) Brightness Sun altitude
Exits shadow 19:12:21 15° 356° (N) 1,962 5.2 -29.9°
Drops below altitude 10° 19:13:16 10° 354° (N) 2,312 5.6 -30.1°
Sets 19:15:36 0° 350° (N) 3,243 6.4 -30.5°
